User: anonymous   Login
Location: Unspecified
(0.0000°N, 0.0000°E)
Time: 13:00:59
(UTC+01:00)
Language:

Transit 2A - Orbit

View from above orbital plane
View from above orbital plane
View from above satellite
View from above satellite

Ground track
Ground track

The orbit data is extracted from the following two-line orbital elements,

1 00045U 60007A   14330.44926100  .00000971  00000-0  27011-3 0  2937
2 00045 066.6956 329.2879 0258529 351.3897 159.1420 14.33130214831743
Epoch (UTC): 26 November 2014 10:46:56
Eccentricity: 0.0258529
inclination: 66.6956°
perigee height: 596 km
apogee height: 966 km
right ascension of ascending node: 329.2879°
argument of perigee: 351.3897°
revolutions per day: 14.33130214
mean anomaly at epoch: 159.1420°
orbit number at epoch: 83174

The dashed part of the orbit path shows where the satellite is in the earth's shadow,  

DLR